This is the latest recevied weather packets stored in our database for station/object DO3MHA-13. If no packets are shown the sender has not sent any weather packets the latest 1 day(s).
| Time | Temp. | Humidity | Pressure | Rain* | Wind** | Luminosity | Snow |
|---|---|---|---|---|---|---|---|
| 1778052033 | - | - | 998.4 hPa | 0 mm | 0.45 m/s, 180° | - | - |
| 1778052003 | - | - | 998.4 hPa | 0 mm | 0.89 m/s, 270° | - | - |
| 1778051993 | - | - | 998.4 hPa | 0 mm | 0.89 m/s, 225° | - | - |
| 1778051963 | - | - | 998.4 hPa | 0 mm | 1.34 m/s, 180° | - | - |
| 1778051953 | - | - | 998.3 hPa | 0 mm | 1.34 m/s, 180° | - | - |
| 1778051893 | - | - | 998.4 hPa | 0 mm | 1.79 m/s, 180° | - | - |
| 1778051883 | - | - | 998.3 hPa | 0 mm | 1.79 m/s, 180° | - | - |
| 1778051853 | - | - | 998.4 hPa | 0 mm | 1.79 m/s, 180° | - | - |
| 1778051843 | - | - | 998.3 hPa | 0 mm | 1.79 m/s, 180° | - | - |
| 1778051813 | - | - | 998.4 hPa | 0 mm | 1.79 m/s, 180° | - | - |
| 1778051803 | - | - | 998.3 hPa | 0 mm | 1.79 m/s, 158° | - | - |
| 1778051773 | - | - | 998.3 hPa | 0 mm | 1.79 m/s, 135° | - | - |
| 1778051753 | - | - | 998.4 hPa | 0 mm | 1.79 m/s, 180° | - | - |
| 1778051743 | - | - | 998.3 hPa | 0 mm | 2.24 m/s, 180° | - | - |
| 1778051724 | - | - | 998.3 hPa | 0 mm | 1.79 m/s, 180° | - | - |
| 1778051715 | - | - | 998.3 hPa | 0 mm | 1.79 m/s, 180° | - | - |
| 1778051694 | - | - | 998.4 hPa | 0 mm | 1.79 m/s, 158° | - | - |
| 1778051684 | - | - | 998.4 hPa | 0 mm | 1.79 m/s, 180° | - | - |
| 1778051674 | - | - | 998.3 hPa | 0 mm | 1.34 m/s, 158° | - | - |
| 1778051634 | - | - | 998.3 hPa | 0 mm | 1.34 m/s, 180° | - | - |
| 1778051614 | - | - | 998.4 hPa | 0 mm | 1.34 m/s, 180° | - | - |
| 1778051584 | - | - | 998.4 hPa | 0 mm | 1.34 m/s, 203° | - | - |
| 1778051574 | - | - | 998.4 hPa | 0 mm | 1.34 m/s, 180° | - | - |
| 1778051544 | - | - | 998.3 hPa | 0 mm | 0.89 m/s, 180° | - | - |
| 1778051534 | - | - | 998.4 hPa | 0 mm | 0.89 m/s, 180° | - | - |
* Rain latest hour (hover to see other rain measurements)
** Current wind speed in m/s (hover to see current wind gust speed)